Stations météo

réclame
Mon MeteoGroup
Barranda, Espagne (8365): Température de l'air & dewpoint: 14.06.2018 07:00:00 - 20.06.2018 07:00:00 (CEST)Barranda, Espagne (8365): Vitesse du vent & gusts: 14.06.2018 07:00:00 - 20.06.2018 07:00:00 (CEST)Barranda, Espagne (8365): Direction du vent: 14.06.2018 07:00:00 - 20.06.2018 07:00:00 (CEST)Barranda, Espagne (8365): reduced air pressure: 14.06.2018 07:00:00 - 20.06.2018 07:00:00 (CEST)Barranda, Espagne (8365): visibility: 14.06.2018 07:00:00 - 20.06.2018 07:00:00 (CEST)Barranda, Espagne (8365): Ensoleillement: 14.06.2018 07:00:00 - 20.06.2018 07:00:00 (CEST)Barranda, Espagne (8365): Quantités de précipitations: 14.06.2018 07:00:00 - 20.06.2018 07:00:00 (CEST)
Date & Time tt [°C] td [°C] ff [km/h] ff [knt] fx [km/h] fx [knt] dd ppp [hPa] vv [km] sd [min] rr [mm]
20.06.2018 07:00:00 13,1 9,9 4 2 15 8 WNW 1020,7 20 0 0,0
20.06.2018 06:00:00 14,9 10,0 8 5 - - W 1020,1 20 - -
20.06.2018 05:00:00 13,7 10,5 4 2 13 7 W 1020,7 20 0 0,0
20.06.2018 04:00:00 15,5 10,5 6 3 13 7 W 1020,4 20 0 0,0
20.06.2018 03:00:00 16,5 10,8 10 5 16 8 W 1020,6 20 0 0,0
20.06.2018 02:00:00 17,9 11,2 5 3 12 7 WSW 1020,4 20 0 -
20.06.2018 01:00:00 18,6 11,4 6 3 11 6 WSW 1020,5 20 0 0,0
20.06.2018 00:00:00 19,5 11,2 6 4 17 9 WSW 1020,4 20 0 0,0
19.06.2018 23:00:00 20,3 11,4 5 3 12 7 W 1020,0 20 0 0,0
19.06.2018 22:00:00 21,3 11,6 2 1 16 9 SSW 1019,2 20 0 0,0
19.06.2018 21:00:00 23,7 10,8 9 5 23 13 ESE 1018,2 20 1 0,0
19.06.2018 20:00:00 25,3 10,3 16 9 29 16 E 1017,5 20 54 -
19.06.2018 19:00:00 26,6 10,3 17 9 32 17 E 1016,8 20 60 0,0
19.06.2018 18:00:00 27,7 9,9 17 9 34 18 E 1017,0 20 60 0,0
19.06.2018 17:00:00 28,4 10,2 16 9 31 17 E 1017,0 20 60 0,0
19.06.2018 16:00:00 28,1 9,8 15 8 30 16 ENE 1017,3 20 60 0,0
19.06.2018 15:00:00 28,8 9,9 13 7 32 17 E 1017,6 20 60 0,0
19.06.2018 14:00:00 27,8 10,0 10 5 24 13 ENE 1018,4 20 60 -
19.06.2018 13:00:00 27,8 10,0 10 5 22 12 ESE 1018,9 20 60 0,0
19.06.2018 12:00:00 27,2 9,9 11 6 23 12 E 1019,3 20 60 0,0
19.06.2018 11:00:00 25,7 9,0 6 4 13 7 ESE 1019,9 20 60 0,0
19.06.2018 10:00:00 23,7 10,8 6 3 11 6 ESE 1020,6 20 60 0,0
19.06.2018 09:00:00 20,8 10,3 2 1 15 8 ESE 1021,2 20 60 0,0
19.06.2018 08:00:00 17,0 9,7 9 5 19 10 WSW 1021,9 20 54 -
19.06.2018 07:00:00 15,0 9,3 10 5 16 8 W 1022,1 20 0 0,0
19.06.2018 06:00:00 16,0 10,8 3 2 15 8 NNW 1021,3 20 0 0,0
19.06.2018 05:00:00 16,1 10,4 9 5 14 7 W 1021,2 20 0 0,0
19.06.2018 04:00:00 14,7 11,1 4 2 11 6 NW 1021,6 20 0 0,0
19.06.2018 03:00:00 15,4 11,3 4 2 6 4 W 1021,3 20 0 0,0
19.06.2018 02:00:00 17,3 11,6 6 3 11 6 W 1020,7 20 0 -
19.06.2018 01:00:00 - - - - - - - - - - -
19.06.2018 00:00:00 18,2 11,2 4 2 7 4 SW 1020,8 20 0 0,0
18.06.2018 23:00:00 19,9 11,3 4 2 10 5 N 1019,8 20 0 0,0
18.06.2018 22:00:00 21,9 12,2 5 3 15 8 N 1018,5 20 0 0,0
18.06.2018 21:00:00 24,3 11,2 6 4 26 14 NE 1017,4 20 0 0,0
18.06.2018 20:00:00 27,2 9,9 14 7 24 13 E 1016,1 20 54 -
18.06.2018 19:00:00 28,4 9,7 14 8 27 15 E 1015,6 20 60 0,0
18.06.2018 18:00:00 28,9 10,5 19 10 34 19 E 1015,7 20 60 0,0
18.06.2018 17:00:00 30,7 9,6 13 7 26 14 E 1015,4 20 60 0,0
18.06.2018 16:00:00 30,7 9,0 13 7 27 15 E 1015,8 20 60 0,0
18.06.2018 15:00:00 31,1 9,3 12 6 23 12 E 1016,3 20 60 0,0
18.06.2018 14:00:00 30,6 9,4 10 6 19 10 E 1017,0 20 60 -
18.06.2018 13:00:00 29,4 9,6 7 4 18 10 NW 1017,8 20 60 0,0
18.06.2018 12:00:00 28,0 9,8 9 5 18 10 E 1018,3 20 60 0,0
18.06.2018 11:00:00 27,2 9,6 8 4 15 8 E 1018,5 20 60 0,0
18.06.2018 10:00:00 25,1 8,5 4 2 10 5 SSE 1019,2 20 60 0,0
18.06.2018 09:00:00 22,0 10,8 4 2 8 4 S 1020,0 20 60 0,0
18.06.2018 08:00:00 17,8 10,6 1 1 17 9 NW 1020,8 20 49 -
18.06.2018 07:00:00 15,0 9,8 6 3 15 8 WSW 1021,6 20 0 0,0
18.06.2018 06:00:00 15,1 9,9 3 2 14 7 SSE 1021,4 20 0 0,0
18.06.2018 05:00:00 15,0 10,0 4 2 12 7 WNW 1020,8 20 0 0,0
18.06.2018 04:00:00 15,2 10,4 1 1 5 3 SW 1021,0 20 0 0,0
18.06.2018 03:00:00 16,3 10,6 4 2 7 4 NW 1020,9 20 0 0,0
18.06.2018 02:00:00 17,7 10,8 4 2 11 6 W 1020,6 20 0 -
18.06.2018 01:00:00 19,8 9,9 8 4 12 6 W 1020,3 20 0 0,0
18.06.2018 00:00:00 22,2 9,0 7 4 17 9 SW 1019,4 20 0 0,0
17.06.2018 23:00:00 23,4 9,0 8 4 17 9 WSW 1019,1 20 0 0,0
17.06.2018 22:00:00 24,8 9,2 10 6 17 9 W 1018,1 20 0 0,0
17.06.2018 21:00:00 26,3 9,2 5 3 17 9 WSW 1017,0 20 1 0,0
17.06.2018 20:00:00 28,2 8,9 12 6 24 13 E 1016,4 20 55 -
17.06.2018 19:00:00 29,5 9,0 12 7 26 14 E 1015,6 20 60 0,0
17.06.2018 18:00:00 30,7 8,4 12 6 26 14 E 1015,4 20 59 0,0
17.06.2018 17:00:00 31,3 7,7 13 7 26 14 ESE 1015,4 20 60 0,0
17.06.2018 16:00:00 31,3 7,0 13 7 24 13 ESE 1015,6 20 60 0,0
17.06.2018 15:00:00 30,8 5,9 12 6 24 13 E 1015,9 20 60 0,0
17.06.2018 14:00:00 30,4 6,2 11 6 19 10 E 1016,4 20 60 -
17.06.2018 13:00:00 29,2 7,1 6 4 17 9 E 1016,9 20 60 0,0
17.06.2018 12:00:00 27,7 7,0 7 4 15 8 E 1017,2 20 60 0,0
17.06.2018 11:00:00 25,5 8,0 7 4 13 7 E 1017,7 20 60 0,0
17.06.2018 10:00:00 23,6 8,4 6 3 10 5 E 1018,4 20 60 0,0
17.06.2018 09:00:00 20,2 10,0 2 1 11 6 NW 1018,8 20 59 0,0
17.06.2018 08:00:00 15,5 8,9 10 6 19 10 W 1019,4 20 7 -
17.06.2018 07:00:00 15,0 8,5 10 5 17 9 W 1019,3 20 0 0,0
17.06.2018 06:00:00 15,3 8,8 10 5 14 8 WSW 1018,8 20 0 0,0
17.06.2018 05:00:00 14,4 9,7 2 1 8 4 SSW 1019,0 20 0 0,0
17.06.2018 04:00:00 14,6 9,8 4 2 6 3 WNW 1018,7 20 0 0,0
17.06.2018 03:00:00 15,7 10,0 3 2 11 6 WNW 1018,2 20 0 0,0
17.06.2018 02:00:00 17,9 9,8 7 4 13 7 ENE 1017,8 20 0 -
17.06.2018 01:00:00 18,9 9,9 3 1 8 4 NNE 1016,8 20 0 0,0
17.06.2018 00:00:00 19,4 10,9 3 2 6 3 NNW 1016,3 20 0 0,0
16.06.2018 23:00:00 20,2 10,3 3 2 8 4 NNW 1015,6 20 0 0,0
16.06.2018 22:00:00 22,3 9,8 5 3 10 6 N 1014,4 20 0 0,0
16.06.2018 21:00:00 24,8 8,3 8 4 19 11 NE 1013,4 20 1 0,0
16.06.2018 20:00:00 27,0 8,0 12 7 29 16 ENE 1012,2 20 54 -
16.06.2018 19:00:00 30,1 7,3 7 4 27 14 SE 1010,7 20 58 0,0
16.06.2018 18:00:00 31,0 8,1 13 7 29 16 E 1010,2 20 58 0,0
16.06.2018 17:00:00 30,4 8,1 13 7 28 15 E 1010,5 20 52 0,0
16.06.2018 16:00:00 30,6 8,4 14 7 27 15 E 1010,9 20 54 0,0
16.06.2018 15:00:00 30,6 8,9 10 5 25 13 ENE 1011,4 20 60 0,0
16.06.2018 14:00:00 29,1 10,3 13 7 26 14 E 1012,3 20 60 -
16.06.2018 13:00:00 28,8 10,9 9 5 16 9 E 1012,7 20 60 0,0
16.06.2018 12:00:00 27,1 10,8 9 5 18 10 E 1013,6 20 60 0,0
16.06.2018 11:00:00 26,1 10,6 7 4 13 7 ESE 1013,7 20 60 0,0
16.06.2018 10:00:00 23,5 10,2 5 3 9 5 ESE 1014,5 20 60 0,0
16.06.2018 09:00:00 21,0 10,5 5 3 9 5 ESE 1014,8 20 60 0,0
16.06.2018 08:00:00 15,8 11,3 2 1 9 5 SW 1015,6 20 52 -
16.06.2018 07:00:00 12,8 9,9 4 2 8 4 WNW 1016,2 20 0 0,0
16.06.2018 06:00:00 13,4 9,8 3 2 6 3 WSW 1015,6 20 0 0,0
16.06.2018 05:00:00 13,9 10,2 2 1 5 3 WNW 1015,5 20 0 0,0
16.06.2018 04:00:00 14,7 10,2 3 1 7 4 WSW 1015,4 20 0 0,0
16.06.2018 03:00:00 16,0 10,3 3 2 14 8 W 1015,3 20 0 0,0
16.06.2018 02:00:00 17,7 9,3 7 4 12 6 WSW 1015,0 20 0 -
16.06.2018 01:00:00 18,4 9,2 6 3 10 6 W 1014,8 20 0 0,0
16.06.2018 00:00:00 19,5 9,4 1 1 12 6 NNW 1014,5 20 0 0,0
15.06.2018 23:00:00 22,8 7,3 8 4 17 9 WSW 1013,4 20 0 0,0
15.06.2018 22:00:00 24,1 8,9 10 5 20 11 WSW 1012,5 20 0 0,0
15.06.2018 21:00:00 26,2 10,4 6 3 17 9 WSW 1011,2 20 0 0,0
15.06.2018 20:00:00 28,5 8,8 11 6 24 13 E 1010,3 20 55 -
15.06.2018 19:00:00 29,8 6,4 5 3 23 12 E 1009,5 20 60 0,0
15.06.2018 18:00:00 30,6 7,1 10 5 24 13 ESE 1009,7 20 60 0,0
15.06.2018 17:00:00 30,6 6,4 11 6 25 13 E 1010,2 20 60 0,0
15.06.2018 16:00:00 30,2 6,7 8 4 25 13 ENE 1010,8 20 60 0,0
15.06.2018 15:00:00 30,0 7,8 12 7 26 14 E 1011,4 20 60 0,0
15.06.2018 14:00:00 28,8 8,5 12 6 24 13 ENE 1012,1 20 60 -
15.06.2018 13:00:00 28,1 9,8 10 5 22 12 E 1012,6 20 60 0,0
15.06.2018 12:00:00 25,8 10,0 9 5 18 10 E 1013,3 20 60 0,0
15.06.2018 11:00:00 24,6 11,9 9 5 14 8 E 1013,7 20 60 0,0
15.06.2018 10:00:00 22,9 7,0 5 3 8 4 NE 1014,2 20 60 0,0
15.06.2018 09:00:00 20,0 8,4 2 1 13 7 W 1014,9 20 60 0,0
15.06.2018 08:00:00 15,5 6,2 10 5 16 9 W 1015,6 20 54 -
15.06.2018 07:00:00 11,3 7,8 3 1 7 4 WSW 1016,6 20 0 0,0
15.06.2018 06:00:00 12,7 7,6 3 1 14 8 W 1016,3 20 0 0,0
15.06.2018 05:00:00 13,9 7,1 10 5 15 8 W 1015,9 20 0 0,0
15.06.2018 04:00:00 13,8 9,8 2 1 15 8 W 1016,1 20 0 0,0
15.06.2018 03:00:00 13,3 10,9 5 3 8 4 WSW 1016,3 20 0 0,0
15.06.2018 02:00:00 14,5 11,4 3 2 11 6 NW 1016,3 20 0 -
15.06.2018 01:00:00 15,7 12,8 3 2 6 4 W 1016,1 19 0 0,0
15.06.2018 00:00:00 17,3 13,5 3 2 9 5 W 1015,6 20 0 0,0
14.06.2018 23:00:00 19,1 13,5 4 2 10 5 N 1015,2 20 0 0,0
14.06.2018 22:00:00 21,2 13,7 4 2 17 9 N 1013,7 20 0 0,0
14.06.2018 21:00:00 23,6 12,8 12 6 20 11 ENE 1012,3 20 0 0,0
14.06.2018 20:00:00 25,8 10,4 11 6 24 13 E 1011,3 20 54 -
14.06.2018 19:00:00 27,0 8,9 11 6 31 17 ESE 1010,5 20 58 0,0
14.06.2018 18:00:00 29,1 3,8 13 7 29 16 NE 1009,8 20 60 0,0
14.06.2018 17:00:00 29,6 5,0 6 3 23 12 E 1009,8 20 60 0,0
14.06.2018 16:00:00 29,7 5,8 9 5 22 12 E 1009,8 20 60 0,0
14.06.2018 15:00:00 29,2 5,9 11 6 22 12 E 1010,5 20 60 0,0
14.06.2018 14:00:00 27,9 6,5 9 5 21 11 SE 1011,4 20 60 -
14.06.2018 13:00:00 26,7 6,7 11 6 23 12 ESE 1012,2 20 60 0,0
14.06.2018 12:00:00 25,6 6,2 8 5 17 9 E 1012,8 20 60 0,0
14.06.2018 11:00:00 24,2 6,8 7 4 14 8 E 1013,1 20 60 0,0
14.06.2018 10:00:00 22,3 6,8 6 3 11 6 ESE 1013,9 20 60 0,0
14.06.2018 09:00:00 19,9 6,2 3 1 6 3 E 1014,6 20 60 0,0
14.06.2018 08:00:00 14,8 8,1 1 1 17 9 W 1015,8 20 51 -
14.06.2018 07:00:00 13,9 5,0 11 6 16 9 W 1016,1 20 0 0,0

tt = Température de l'air
td = dewpoint
ff = Vitesse du vent
fx = gusts
dd = Direction du vent
ppp = reduced air pressure
vv = visibility
sd = Ensoleillement
rr = Quantités de précipitations

stations d'obs. à proximité